START_TIME,STEP,MOV.,H8,t_acc.,H43,t_acc.,M25,t_acc.,H9,t_acc.
1979-07-27 03:00:28.790 ,1,0,0.,12.0,0.,12.0,0.,12.0,0.,12.0
1979-07-27 03:00:40.790 ,1,0,0.,12.0,0.,12.0,0.,12.0,0.,12.0
1979-07-27 03:00:52.790 ,2,0,0.,12.0,0.,12.0,0.,12.0,0.,12.0
1979-07-27 03:01:04.790 ,2,0,0.,12.0,0.,12.0,0.,12.0,0.,12.0
1979-07-27 03:01:16.790 ,2,0,0.,12.0,0.,12.0,0.,12.0,0.,12.0
1979-07-27 03:01:28.790 ,2,0,0.,12.0,0.,12.0,0.,12.0,0.,12.0
1979-07-27 03:01:40.790 ,3,0,0.,12.0,0.,12.0,0.,12.0,0.,12.0
1979-07-27 03:01:52.790 ,3,0,0.,12.0,0.,12.0,0.,12.0,0.,12.0
1979-07-27 03:02:04.790 ,3,0,0.,12.0,0.,12.0,0.,12.0,0.,12.0
1979-07-27 03:02:16.790 ,3,0,0.,12.0,0.,12.0,0.,12.0,0.,12.0
1979-07-27 03:02:28.790 ,4,0,0.,12.0,0.,12.0,0.,12.0,0.,12.0
1979-07-27 03:02:40.790 ,4,0,0.,12.0,0.,12.0,0.,12.0,0.,12.0
1979-07-27 03:02:52.790 ,4,0,0.,12.0,0.,12.0,0.,12.0,0.,12.0
1979-07-27 03:03:04.790 ,4,0,0.,12.0,0.,12.0,0.,12.0,0.,12.0
1979-07-27 03:03:16.790 ,5,0,0.,12.0,0.,12.0,0.,12.0,0.,12.0
1979-07-27 03:03:28.790 ,5,0,0.,12.0,0.,12.0,0.,12.0,0.,12.0
1979-07-27 03:03:40.790 ,5,0,0.,12.0,0.,12.0,0.,12.0,0.,12.0
1979-07-27 03:03:52.790 ,5,0,0.,12.0,0.,12.0,0.,12.0,0.,12.0
1979-07-27 03:04:04.790 ,6,0,0.,12.0,0.,12.0,0.,12.0,0.,12.0
1979-07-27 03:04:16.790 ,6,0,0.,12.0,0.,12.0,0.,12.0,0.,12.0
1979-07-27 03:04:28.790 ,6,0,0.,12.0,0.,12.0,0.,12.0,0.,12.0
1979-07-27 03:04:40.790 ,6,0,0.,12.0,0.,12.0,0.,12.0,0.,12.0
1979-07-27 03:04:52.790 ,7,0,0.,12.0,0.,12.0,0.,12.0,0.,12.0
1979-07-27 03:05:04.790 ,7,0,0.,12.0,0.,12.0,0.,12.0,0.,12.0
1979-07-27 03:05:16.790 ,7,0,0.,12.0,0.,12.0,0.,12.0,0.,12.0
1979-07-27 03:05:28.790 ,7,0,0.,12.0,0.,12.0,0.,12.0,0.,12.0
1979-07-27 03:05:40.790 ,7,0,0.,12.0,0.,12.0,0.,12.0,0.,12.0
1979-07-27 03:05:52.790 ,7,0,0.,12.0,0.,12.0,0.,12.0,0.,12.0
1979-07-27 03:06:04.790 ,7,0,0.,12.0,0.,12.0,0.,12.0,0.,12.0
1979-07-27 03:06:16.790 ,7,0,0.,12.0,0.,12.0,0.,12.0,0.,12.0
1979-07-27 03:06:28.790 ,6,0,0.,12.0,0.,12.0,0.,12.0,0.,12.0
1979-07-27 03:06:40.790 ,6,0,0.,12.0,0.,12.0,0.,12.0,0.,12.0
1979-07-27 03:06:52.790 ,6,0,0.,12.0,0.,12.0,0.,12.0,0.,12.0
1979-07-27 03:07:04.790 ,6,0,0.,12.0,0.,12.0,0.,12.0,0.,12.0
1979-07-27 03:07:16.790 ,5,0,0.,12.0,0.,12.0,0.,12.0,0.,12.0
1979-07-27 03:07:28.790 ,5,0,0.,12.0,0.,12.0,0.,12.0,0.,12.0
1979-07-27 03:07:40.790 ,5,0,0.,12.0,0.,12.0,0.,12.0,0.,12.0
1979-07-27 03:07:52.790 ,5,0,0.,12.0,0.,12.0,0.,12.0,0.,12.0
1979-07-27 03:08:04.790 ,4,0,0.,12.0,0.,12.0,0.,12.0,0.,12.0
1979-07-27 03:08:16.790 ,4,0,0.,12.0,0.,12.0,0.,12.0,0.,12.0
1979-07-27 03:08:28.790 ,4,0,0.,12.0,0.,12.0,0.,12.0,0.,12.0
1979-07-27 03:08:40.790 ,4,0,0.,12.0,0.,12.0,0.,12.0,0.,12.0
1979-07-27 03:08:52.790 ,3,0,0.,12.0,0.,12.0,0.,12.0,0.,12.0
1979-07-27 03:09:04.790 ,3,0,0.,12.0,0.,12.0,0.,12.0,0.,12.0
1979-07-27 03:09:16.790 ,3,0,0.,12.0,0.,12.0,0.,12.0,0.,12.0
1979-07-27 03:09:28.790 ,3,0,0.,12.0,0.,12.0,0.,12.0,0.,12.0
1979-07-27 03:09:40.790 ,2,0,0.,12.0,0.,12.0,0.,12.0,0.,12.0
1979-07-27 03:09:52.790 ,2,0,0.,12.0,0.,12.0,0.,12.0,0.,12.0
1979-07-27 03:10:04.790 ,2,0,0.,12.0,0.,12.0,0.,12.0,0.,12.0
1979-07-27 03:10:16.790 ,2,0,0.,12.0,0.,12.0,0.,12.0,0.,12.0
1979-07-27 03:10:28.790 ,1,0,0.,12.0,0.,12.0,0.,12.0,0.,12.0
1979-07-27 03:10:40.790 ,1,0,0.,12.0,0.,12.0,0.,12.0,0.,12.0
1979-07-27 03:10:52.790 ,1,0,0.,12.0,0.,12.0,0.,12.0,0.,12.0
1979-07-27 03:11:04.790 ,1,0,0.,12.0,0.,12.0,0.,12.0,0.,12.0
1979-07-27 03:11:16.790 ,0,0,0.,12.0,0.,12.0,0.,12.0,0.,12.0
1979-07-27 03:11:28.790 ,0,0,0.,12.0,0.,12.0,0.,12.0,0.,12.0
1979-07-27 03:11:40.790 ,0,0,0.,12.0,0.,12.0,0.,12.0,0.,12.0
1979-07-27 03:11:52.790 ,0,0,0.,12.0,0.,12.0,0.,12.0,0.,12.0
1979-07-27 03:12:04.790 ,0,0,0.,12.0,0.,12.0,0.,12.0,0.,12.0
1979-07-27 03:12:16.790 ,0,0,0.,12.0,0.,12.0,0.,12.0,0.,12.0
1979-07-27 03:12:28.790 ,0,0,0.,12.0,0.,12.0,0.,12.0,0.,12.0
1979-07-27 03:12:40.790 ,0,0,0.,12.0,1.,12.0,0.,12.0,0.,12.0
1979-07-27 03:12:52.790 ,1,0,0.,12.0,0.,12.0,0.,12.0,0.,12.0
1979-07-27 03:13:04.790 ,1,0,0.,12.0,0.,12.0,0.,12.0,0.,12.0
1979-07-27 03:13:16.790 ,1,0,0.,12.0,0.,12.0,0.,12.0,0.,12.0
1979-07-27 03:13:28.790 ,1,0,0.,12.0,0.,12.0,0.,12.0,0.,12.0
1979-07-27 03:13:40.790 ,2,0,0.,12.0,0.,12.0,0.,12.0,0.,12.0
1979-07-27 03:13:52.790 ,2,0,0.,12.0,0.,12.0,0.,12.0,0.,12.0
1979-07-27 03:14:04.790 ,2,0,0.,12.0,0.,12.0,0.,12.0,0.,12.0
1979-07-27 03:14:16.790 ,2,0,0.,12.0,0.,12.0,0.,12.0,0.,12.0
1979-07-27 03:14:28.790 ,3,0,0.,12.0,0.,12.0,0.,12.0,0.,12.0
1979-07-27 03:14:40.790 ,3,0,0.,12.0,0.,12.0,0.,12.0,0.,12.0
1979-07-27 03:14:52.790 ,3,0,0.,12.0,0.,12.0,0.,12.0,0.,12.0
1979-07-27 03:15:04.790 ,3,0,0.,12.0,0.,12.0,0.,12.0,0.,12.0
1979-07-27 03:15:16.790 ,4,0,0.,12.0,0.,12.0,0.,12.0,0.,12.0
1979-07-27 03:15:28.790 ,4,0,0.,12.0,0.,12.0,0.,12.0,0.,12.0
1979-07-27 03:15:40.790 ,4,0,0.,12.0,0.,12.0,0.,12.0,0.,12.0
1979-07-27 03:15:52.790 ,4,0,0.,12.0,0.,12.0,0.,12.0,0.,12.0
1979-07-27 03:16:04.790 ,5,0,0.,12.0,0.,12.0,0.,12.0,0.,12.0
1979-07-27 03:16:16.790 ,5,0,0.,12.0,0.,12.0,0.,12.0,0.,12.0
1979-07-27 03:16:28.790 ,5,0,0.,12.0,0.,12.0,0.,12.0,0.,12.0
1979-07-27 03:16:40.790 ,5,0,0.,12.0,0.,12.0,0.,12.0,0.,12.0
1979-07-27 03:16:52.790 ,6,0,0.,12.0,0.,12.0,0.,12.0,0.,12.0
1979-07-27 03:17:04.790 ,6,0,0.,12.0,0.,12.0,0.,12.0,0.,12.0
1979-07-27 03:17:16.790 ,6,0,0.,12.0,0.,12.0,0.,12.0,0.,12.0
1979-07-27 03:17:28.790 ,6,0,0.,12.0,0.,12.0,0.,12.0,0.,12.0
1979-07-27 03:17:40.790 ,7,0,0.,12.0,0.,12.0,0.,12.0,0.,12.0
1979-07-27 03:17:52.790 ,7,0,0.,12.0,0.,12.0,0.,12.0,0.,12.0
1979-07-27 03:18:04.790 ,7,0,0.,12.0,0.,12.0,0.,12.0,0.,12.0
1979-07-27 03:18:16.790 ,7,0,0.,12.0,0.,12.0,0.,12.0,0.,12.0
1979-07-27 03:18:28.790 ,7,0,0.,12.0,0.,12.0,0.,12.0,0.,12.0
1979-07-27 03:18:40.790 ,7,0,0.,12.0,0.,12.0,0.,12.0,0.,12.0
1979-07-27 03:18:52.790 ,7,0,0.,12.0,0.,12.0,0.,12.0,0.,12.0
1979-07-27 03:19:04.790 ,7,0,0.,12.0,0.,12.0,0.,12.0,0.,12.0
1979-07-27 03:19:16.790 ,6,0,0.,12.0,0.,12.0,0.,12.0,0.,12.0
1979-07-27 03:19:28.790 ,6,0,0.,12.0,0.,12.0,0.,12.0,0.,12.0
1979-07-27 03:19:40.790 ,6,0,0.,12.0,0.,12.0,0.,12.0,0.,12.0
1979-07-27 03:19:52.790 ,6,0,0.,12.0,0.,12.0,0.,12.0,0.,12.0
1979-07-27 03:20:04.790 ,5,0,0.,12.0,0.,12.0,0.,12.0,0.,12.0
1979-07-27 03:20:16.790 ,5,0,0.,12.0,0.,12.0,0.,12.0,0.,12.0
1979-07-27 03:20:28.790 ,5,0,0.,12.0,0.,12.0,0.,12.0,0.,12.0
1979-07-27 03:20:40.790 ,5,0,0.,12.0,0.,12.0,0.,12.0,0.,12.0
1979-07-27 03:20:52.790 ,4,0,0.,12.0,0.,12.0,0.,12.0,0.,12.0
1979-07-27 03:21:04.790 ,4,0,0.,12.0,0.,12.0,0.,12.0,0.,12.0
1979-07-27 03:21:16.790 ,4,0,0.,12.0,0.,12.0,0.,12.0,0.,12.0
1979-07-27 03:21:28.790 ,4,0,0.,12.0,0.,12.0,0.,12.0,0.,12.0
1979-07-27 03:21:40.790 ,3,0,0.,12.0,0.,12.0,0.,12.0,0.,12.0
1979-07-27 03:21:52.790 ,3,0,0.,12.0,0.,12.0,0.,12.0,0.,12.0
1979-07-27 03:22:04.790 ,3,0,0.,12.0,0.,12.0,0.,12.0,0.,12.0
1979-07-27 03:22:16.790 ,3,0,0.,12.0,0.,12.0,0.,12.0,0.,12.0
1979-07-27 03:22:28.790 ,2,0,0.,12.0,0.,12.0,0.,12.0,0.,12.0
1979-07-27 03:22:40.790 ,2,0,0.,12.0,0.,12.0,0.,12.0,0.,12.0
1979-07-27 03:22:52.790 ,2,0,0.,12.0,0.,12.0,0.,12.0,0.,12.0
1979-07-27 03:23:04.790 ,2,0,0.,12.0,0.,12.0,0.,12.0,0.,12.0
1979-07-27 03:23:16.790 ,1,0,0.,12.0,0.,12.0,0.,12.0,0.,12.0
1979-07-27 03:23:28.790 ,1,0,0.,12.0,0.,12.0,0.,12.0,0.,12.0
1979-07-27 03:23:40.790 ,1,0,0.,12.0,0.,12.0,0.,12.0,0.,12.0
1979-07-27 03:23:52.790 ,1,0,0.,12.0,0.,12.0,0.,12.0,0.,12.0
1979-07-27 03:24:04.790 ,0,0,0.,12.0,0.,12.0,0.,12.0,0.,12.0
1979-07-27 03:24:16.790 ,0,0,0.,12.0,0.,12.0,0.,12.0,0.,12.0
1979-07-27 03:24:28.790 ,0,0,0.,12.0,0.,12.0,0.,12.0,0.,12.0
1979-07-27 03:24:40.790 ,0,0,0.,12.0,0.,12.0,0.,12.0,0.,12.0
1979-07-27 03:24:52.790 ,0,0,0.,12.0,0.,12.0,0.,12.0,0.,12.0
1979-07-27 03:25:04.790 ,0,0,0.,12.0,0.,12.0,0.,12.0,0.,12.0
1979-07-27 03:25:16.790 ,0,0,0.,12.0,0.,12.0,0.,12.0,0.,12.0
1979-07-27 03:25:28.790 ,0,0,0.,12.0,0.,12.0,0.,12.0,0.,12.0
1979-07-27 03:25:40.790 ,1,0,0.,12.0,0.,12.0,0.,12.0,0.,12.0
1979-07-27 03:25:52.790 ,1,0,0.,12.0,0.,12.0,0.,12.0,0.,12.0
1979-07-27 03:26:04.790 ,1,0,0.,12.0,0.,12.0,0.,12.0,0.,12.0
1979-07-27 03:26:16.790 ,1,0,0.,12.0,0.,12.0,0.,12.0,0.,12.0
1979-07-27 03:26:28.790 ,2,0,0.,12.0,0.,12.0,0.,12.0,0.,12.0
1979-07-27 03:26:40.790 ,2,0,0.,12.0,0.,12.0,0.,12.0,0.,12.0
1979-07-27 03:26:52.790 ,2,0,0.,12.0,0.,12.0,0.,12.0,0.,12.0
1979-07-27 03:27:04.790 ,2,0,0.,12.0,0.,12.0,0.,12.0,0.,12.0
1979-07-27 03:27:16.790 ,3,0,0.,12.0,0.,12.0,0.,12.0,0.,12.0
1979-07-27 03:27:28.790 ,3,0,0.,12.0,0.,12.0,0.,12.0,0.,12.0
1979-07-27 03:27:40.790 ,3,0,0.,12.0,0.,12.0,0.,12.0,0.,12.0
1979-07-27 03:27:52.790 ,3,0,0.,12.0,0.,12.0,0.,12.0,0.,12.0
1979-07-27 03:28:04.790 ,4,0,0.,12.0,0.,12.0,0.,12.0,0.,12.0
1979-07-27 03:28:16.790 ,4,0,0.,12.0,0.,12.0,0.,12.0,0.,12.0
1979-07-27 03:28:28.790 ,4,0,0.,12.0,0.,12.0,0.,12.0,0.,12.0
1979-07-27 03:28:40.790 ,4,0,0.,12.0,0.,12.0,0.,12.0,0.,12.0
1979-07-27 03:28:52.790 ,5,0,0.,12.0,0.,12.0,0.,12.0,0.,12.0
1979-07-27 03:29:04.790 ,5,0,0.,12.0,0.,12.0,0.,12.0,0.,12.0
1979-07-27 03:29:16.790 ,5,0,0.,12.0,0.,12.0,0.,12.0,0.,12.0
1979-07-27 03:29:28.790 ,5,0,0.,12.0,0.,12.0,0.,12.0,0.,12.0
1979-07-27 03:29:40.790 ,6,0,0.,12.0,0.,12.0,0.,12.0,0.,12.0
1979-07-27 03:29:52.790 ,6,0,0.,12.0,0.,12.0,0.,12.0,0.,12.0
1979-07-27 03:30:04.790 ,6,0,0.,12.0,0.,12.0,0.,12.0,0.,12.0
1979-07-27 03:30:16.790 ,6,0,0.,12.0,0.,12.0,0.,12.0,0.,12.0
1979-07-27 03:30:28.790 ,7,0,0.,12.0,0.,12.0,0.,12.0,0.,12.0
1979-07-27 03:30:40.790 ,7,0,0.,12.0,0.,12.0,0.,12.0,0.,12.0
1979-07-27 03:30:52.790 ,7,0,0.,12.0,0.,12.0,0.,12.0,0.,12.0
1979-07-27 03:31:04.790 ,7,0,0.,12.0,0.,12.0,0.,12.0,0.,12.0
1979-07-27 03:31:16.790 ,3,1,0.,12.0,0.,12.0,0.,12.0,0.,12.0
1979-07-27 03:31:28.790 ,3,1,0.,12.0,0.,12.0,0.,12.0,0.,12.0
1979-07-27 03:31:40.790 ,0,1,0.,12.0,0.,12.0,0.,12.0,0.,12.0
1979-07-27 03:31:52.790 ,0,1,0.,12.0,0.,12.0,0.,12.0,0.,12.0
1979-07-27 03:32:04.790 ,4,1,0.,12.0,0.,12.0,0.,12.0,0.,12.0
1979-07-27 03:32:16.790 ,4,1,0.,12.0,0.,12.0,0.,12.0,0.,12.0
1979-07-27 03:32:28.790 ,7,1,0.,12.0,0.,12.0,0.,12.0,0.,12.0
1979-07-27 03:32:40.790 ,7,1,0.,12.0,0.,12.0,0.,12.0,0.,12.0
1979-07-27 03:32:52.790 ,3,1,0.,12.0,0.,12.0,0.,12.0,0.,12.0
1979-07-27 03:33:04.790 ,3,1,0.,12.0,0.,12.0,0.,12.0,0.,12.0
1979-07-27 03:33:16.790 ,0,1,0.,12.0,0.,12.0,0.,12.0,0.,12.0
1979-07-27 03:33:28.790 ,0,1,0.,12.0,0.,12.0,0.,12.0,0.,12.0
1979-07-27 03:33:40.790 ,4,1,0.,12.0,0.,12.0,0.,12.0,0.,12.0
1979-07-27 03:33:52.790 ,4,1,0.,12.0,0.,12.0,0.,12.0,0.,12.0
1979-07-27 03:34:04.790 ,7,1,0.,12.0,0.,12.0,0.,12.0,0.,12.0
1979-07-27 03:34:16.790 ,7,1,0.,12.0,0.,12.0,0.,12.0,0.,12.0
1979-07-27 03:34:28.780 ,3,1,0.,12.0,0.,12.0,0.,12.0,0.,12.0
1979-07-27 03:34:40.780 ,3,1,0.,12.0,0.,12.0,0.,12.0,0.,12.0
1979-07-27 03:34:52.780 ,0,1,0.,12.0,0.,12.0,0.,12.0,0.,12.0
1979-07-27 03:35:04.780 ,0,1,0.,12.0,0.,12.0,0.,12.0,0.,12.0
1979-07-27 03:35:16.780 ,4,1,0.,12.0,0.,12.0,0.,12.0,0.,12.0
1979-07-27 03:35:28.780 ,4,1,0.,12.0,0.,12.0,0.,12.0,0.,12.0
1979-07-27 03:35:40.780 ,7,1,0.,12.0,0.,12.0,0.,12.0,0.,12.0
1979-07-27 03:35:52.780 ,7,1,0.,12.0,0.,12.0,0.,12.0,0.,12.0
1979-07-27 03:36:04.780 ,3,1,0.,12.0,0.,12.0,0.,12.0,0.,12.0
1979-07-27 03:36:16.780 ,3,1,0.,12.0,0.,12.0,0.,12.0,0.,12.0
1979-07-27 03:36:28.780 ,0,1,0.,12.0,0.,12.0,0.,12.0,0.,12.0
1979-07-27 03:36:40.780 ,0,1,0.,12.0,0.,12.0,0.,12.0,0.,12.0
1979-07-27 03:36:52.780 ,4,1,0.,12.0,0.,12.0,0.,12.0,0.,12.0
1979-07-27 03:37:04.780 ,4,1,0.,12.0,0.,12.0,0.,12.0,0.,12.0
1979-07-27 03:37:16.780 ,7,1,0.,12.0,0.,12.0,0.,12.0,0.,12.0
1979-07-27 03:37:28.780 ,7,1,0.,12.0,0.,12.0,0.,12.0,0.,12.0
1979-07-27 03:37:40.780 ,3,1,0.,12.0,0.,12.0,0.,12.0,0.,12.0
1979-07-27 03:37:52.780 ,3,1,0.,12.0,0.,12.0,0.,12.0,0.,12.0
1979-07-27 03:38:04.780 ,0,1,0.,12.0,0.,12.0,0.,12.0,0.,12.0
1979-07-27 03:38:16.780 ,0,1,0.,12.0,0.,12.0,0.,12.0,0.,12.0
1979-07-27 03:38:28.780 ,4,1,0.,12.0,0.,12.0,0.,12.0,0.,12.0
1979-07-27 03:38:40.780 ,4,1,0.,12.0,0.,12.0,0.,12.0,0.,12.0
1979-07-27 03:38:52.780 ,7,1,0.,12.0,0.,12.0,0.,12.0,0.,12.0
1979-07-27 03:39:04.780 ,7,1,0.,12.0,0.,12.0,0.,12.0,0.,12.0
1979-07-27 03:39:16.780 ,3,1,0.,12.0,0.,12.0,0.,12.0,0.,12.0
1979-07-27 03:39:28.780 ,3,1,0.,12.0,0.,12.0,0.,12.0,0.,12.0
1979-07-27 03:39:40.780 ,0,1,0.,12.0,0.,12.0,0.,12.0,0.,12.0
1979-07-27 03:39:52.780 ,0,1,0.,12.0,0.,12.0,0.,12.0,0.,12.0
1979-07-27 03:40:04.780 ,4,1,0.,12.0,0.,12.0,0.,12.0,0.,12.0
1979-07-27 03:40:16.780 ,4,1,0.,12.0,0.,12.0,0.,12.0,0.,12.0
1979-07-27 03:40:28.780 ,7,1,0.,12.0,0.,12.0,0.,12.0,0.,12.0
1979-07-27 03:40:40.780 ,7,1,0.,12.0,0.,12.0,0.,12.0,0.,12.0
1979-07-27 03:40:52.780 ,3,1,0.,12.0,0.,12.0,0.,12.0,0.,12.0
1979-07-27 03:41:04.780 ,3,1,0.,12.0,0.,12.0,0.,12.0,0.,12.0
1979-07-27 03:41:16.780 ,0,1,0.,12.0,0.,12.0,0.,12.0,0.,12.0
1979-07-27 03:41:28.780 ,0,1,0.,12.0,0.,12.0,0.,12.0,0.,12.0
1979-07-27 03:41:40.780 ,0,0,0.,12.0,0.,12.0,0.,12.0,0.,12.0
1979-07-27 03:41:52.780 ,0,0,0.,12.0,0.,12.0,0.,12.0,0.,12.0
1979-07-27 03:42:04.780 ,0,0,0.,12.0,0.,12.0,0.,12.0,0.,12.0
1979-07-27 03:42:16.780 ,0,0,0.,12.0,0.,12.0,0.,12.0,0.,12.0
1979-07-27 03:42:28.780 ,5,0,0.,12.0,0.,12.0,0.,12.0,0.,12.0
1979-07-27 03:42:40.780 ,5,0,0.,12.0,0.,12.0,0.,12.0,0.,12.0
1979-07-27 03:42:52.780 ,5,0,0.,12.0,0.,12.0,0.,12.0,0.,12.0
1979-07-27 03:43:04.780 ,5,0,0.,12.0,0.,12.0,0.,12.0,0.,12.0
1979-07-27 03:43:16.780 ,4,0,0.,12.0,0.,12.0,0.,12.0,0.,12.0
1979-07-27 03:43:28.780 ,4,0,0.,12.0,0.,12.0,0.,12.0,0.,12.0
1979-07-27 03:43:40.780 ,4,0,0.,12.0,0.,12.0,0.,12.0,0.,12.0
1979-07-27 03:43:52.780 ,4,0,0.,12.0,0.,12.0,0.,12.0,0.,12.0
1979-07-27 03:44:04.780 ,3,0,0.,12.0,0.,12.0,0.,12.0,0.,12.0
1979-07-27 03:44:16.780 ,3,0,0.,12.0,0.,12.0,0.,12.0,0.,12.0
1979-07-27 03:44:28.780 ,3,0,0.,12.0,0.,12.0,0.,12.0,0.,12.0
1979-07-27 03:44:40.780 ,3,0,0.,12.0,0.,12.0,0.,12.0,0.,12.0
1979-07-27 03:44:52.780 ,2,0,0.,12.0,0.,12.0,0.,12.0,0.,12.0
1979-07-27 03:45:04.780 ,2,0,0.,12.0,0.,12.0,0.,12.0,0.,12.0
1979-07-27 03:45:16.780 ,2,0,0.,12.0,0.,12.0,0.,12.0,0.,12.0
1979-07-27 03:45:28.780 ,2,0,0.,12.0,0.,12.0,0.,12.0,0.,12.0
1979-07-27 03:45:40.780 ,0,0,0.,12.0,0.,12.0,0.,12.0,0.,12.0
1979-07-27 03:45:52.780 ,0,0,0.,12.0,0.,12.0,0.,12.0,0.,12.0
1979-07-27 03:46:04.780 ,0,0,0.,12.0,0.,12.0,0.,12.0,0.,12.0
1979-07-27 03:46:16.780 ,0,0,0.,12.0,0.,12.0,0.,12.0,0.,12.0
1979-07-27 03:46:28.780 ,0,0,0.,12.0,0.,12.0,0.,12.0,0.,12.0
1979-07-27 03:46:40.780 ,0,0,0.,12.0,0.,12.0,0.,12.0,0.,12.0
1979-07-27 03:46:52.780 ,0,0,0.,12.0,0.,12.0,0.,12.0,0.,12.0
1979-07-27 03:47:04.780 ,0,0,0.,12.0,0.,12.0,0.,12.0,0.,12.0
1979-07-27 03:47:16.780 ,0,0,0.,12.0,0.,12.0,0.,12.0,0.,12.0
1979-07-27 03:47:28.780 ,0,0,0.,12.0,0.,12.0,0.,12.0,0.,12.0
1979-07-27 03:47:40.780 ,0,0,0.,12.0,0.,12.0,0.,12.0,0.,12.0
1979-07-27 03:47:52.780 ,0,0,0.,12.0,0.,12.0,0.,12.0,0.,12.0
1979-07-27 03:48:04.780 ,1,0,0.,12.0,0.,12.0,0.,12.0,0.,12.0
1979-07-27 03:48:16.780 ,1,0,0.,12.0,0.,12.0,0.,12.0,0.,12.0
1979-07-27 03:48:28.780 ,1,0,0.,12.0,0.,12.0,0.,12.0,0.,12.0
1979-07-27 03:48:40.780 ,1,0,0.,12.0,0.,12.0,0.,12.0,0.,12.0
1979-07-27 03:48:52.780 ,2,0,0.,12.0,0.,12.0,0.,12.0,0.,12.0
1979-07-27 03:49:04.780 ,2,0,0.,12.0,0.,12.0,0.,12.0,0.,12.0
1979-07-27 03:49:16.780 ,2,0,0.,12.0,0.,12.0,0.,12.0,0.,12.0
1979-07-27 03:49:28.780 ,2,0,0.,12.0,0.,12.0,0.,12.0,0.,12.0
1979-07-27 03:49:40.780 ,3,0,0.,12.0,0.,12.0,0.,12.0,0.,12.0
1979-07-27 03:49:52.780 ,3,0,0.,12.0,0.,12.0,0.,12.0,0.,12.0
1979-07-27 03:50:04.780 ,3,0,0.,12.0,0.,12.0,0.,12.0,0.,12.0
1979-07-27 03:50:16.780 ,3,0,0.,12.0,0.,12.0,0.,12.0,0.,12.0
1979-07-27 03:50:28.780 ,4,0,0.,12.0,0.,12.0,0.,12.0,0.,12.0
1979-07-27 03:50:40.780 ,4,0,0.,12.0,0.,12.0,0.,12.0,0.,12.0
1979-07-27 03:50:52.780 ,4,0,0.,12.0,0.,12.0,0.,12.0,0.,12.0
1979-07-27 03:51:04.780 ,4,0,0.,12.0,0.,12.0,0.,12.0,0.,12.0
1979-07-27 03:51:16.780 ,5,0,0.,12.0,0.,12.0,0.,12.0,0.,12.0
1979-07-27 03:51:28.780 ,5,0,0.,12.0,0.,12.0,0.,12.0,0.,12.0
1979-07-27 03:51:40.780 ,5,0,0.,12.0,0.,12.0,0.,12.0,0.,12.0
1979-07-27 03:51:52.780 ,5,0,0.,12.0,0.,12.0,0.,12.0,0.,12.0
1979-07-27 03:52:04.780 ,6,0,0.,12.0,0.,12.0,0.,12.0,0.,12.0
1979-07-27 03:52:16.780 ,6,0,0.,12.0,0.,12.0,0.,12.0,0.,12.0
1979-07-27 03:52:28.780 ,6,0,0.,12.0,0.,12.0,0.,12.0,0.,12.0
1979-07-27 03:52:40.780 ,6,0,0.,12.0,0.,12.0,0.,12.0,0.,12.0
1979-07-27 03:52:52.780 ,7,0,0.,12.0,0.,12.0,0.,12.0,0.,12.0
1979-07-27 03:53:04.780 ,7,0,0.,12.0,0.,12.0,0.,12.0,0.,12.0
1979-07-27 03:53:16.780 ,7,0,0.,12.0,0.,12.0,0.,12.0,0.,12.0
1979-07-27 03:53:28.780 ,7,0,0.,12.0,0.,12.0,0.,12.0,0.,12.0
1979-07-27 03:53:40.780 ,7,0,0.,12.0,0.,12.0,0.,12.0,0.,12.0
1979-07-27 03:53:52.780 ,7,0,0.,12.0,0.,12.0,0.,12.0,0.,12.0
1979-07-27 03:54:04.780 ,7,0,0.,12.0,0.,12.0,0.,12.0,0.,12.0
1979-07-27 03:54:16.780 ,7,0,0.,12.0,0.,12.0,0.,12.0,0.,12.0
1979-07-27 03:54:28.780 ,6,0,0.,12.0,0.,12.0,0.,12.0,0.,12.0
1979-07-27 03:54:40.780 ,6,0,0.,12.0,0.,12.0,0.,12.0,0.,12.0
1979-07-27 03:54:52.780 ,0,0,0.,12.0,0.,12.0,0.,12.0,0.,12.0
1979-07-27 03:55:04.780 ,0,0,,0,,0,,0,,0
1979-07-27 03:55:16.780 ,5,0,0.,12.0,0.,12.0,0.,12.0,0.,12.0
1979-07-27 03:55:28.780 ,5,0,0.,12.0,0.,12.0,0.,12.0,0.,12.0
1979-07-27 03:55:40.780 ,5,0,0.,12.0,0.,12.0,0.,12.0,0.,12.0
1979-07-27 03:55:52.780 ,5,0,0.,12.0,0.,12.0,0.,12.0,0.,12.0
1979-07-27 03:56:04.780 ,4,0,0.,12.0,0.,12.0,0.,12.0,0.,12.0
1979-07-27 03:56:16.780 ,4,0,0.,12.0,0.,12.0,0.,12.0,0.,12.0
1979-07-27 03:56:28.780 ,4,0,0.,12.0,0.,12.0,0.,12.0,0.,12.0
1979-07-27 03:56:40.780 ,4,0,0.,12.0,0.,12.0,0.,12.0,0.,12.0
1979-07-27 03:56:52.780 ,3,0,0.,12.0,0.,12.0,0.,12.0,0.,12.0
1979-07-27 03:57:04.780 ,3,0,0.,12.0,0.,12.0,0.,12.0,0.,12.0
1979-07-27 03:57:16.780 ,3,0,0.,12.0,0.,12.0,0.,12.0,0.,12.0
1979-07-27 03:57:28.780 ,3,0,0.,12.0,0.,12.0,0.,12.0,0.,12.0
1979-07-27 03:57:40.780 ,2,0,0.,12.0,0.,12.0,0.,12.0,0.,12.0
1979-07-27 03:57:52.780 ,2,0,0.,12.0,0.,12.0,0.,12.0,0.,12.0
1979-07-27 03:58:04.780 ,2,0,0.,12.0,0.,12.0,0.,12.0,0.,12.0
1979-07-27 03:58:16.780 ,2,0,0.,12.0,0.,12.0,0.,12.0,0.,12.0
1979-07-27 03:58:28.780 ,1,0,0.,12.0,0.,12.0,0.,12.0,0.,12.0
1979-07-27 03:58:40.780 ,1,0,0.,12.0,0.,12.0,0.,12.0,0.,12.0
1979-07-27 03:58:52.780 ,1,0,0.,12.0,0.,12.0,0.,12.0,0.,12.0
1979-07-27 03:59:04.780 ,1,0,0.,12.0,0.,12.0,0.,12.0,0.,12.0
1979-07-27 03:59:16.780 ,0,0,0.,12.0,0.,12.0,0.,12.0,0.,12.0
1979-07-27 03:59:28.780 ,0,0,0.,12.0,0.,12.0,0.,12.0,0.,12.0
1979-07-27 03:59:40.780 ,0,0,0.,12.0,0.,12.0,0.,12.0,0.,12.0
1979-07-27 03:59:52.780 ,0,0,0.,12.0,0.,12.0,0.,12.0,0.,12.0
1979-07-27 04:00:04.780 ,0,0,0.,12.0,0.,12.0,0.,12.0,0.,12.0
1979-07-27 04:00:16.780 ,0,0,0.,12.0,0.,12.0,0.,12.0,0.,12.0
1979-07-27 04:00:28.780 ,0,0,0.,12.0,0.,12.0,0.,12.0,0.,12.0
1979-07-27 04:00:40.780 ,0,0,0.,12.0,0.,12.0,0.,12.0,0.,12.0
1979-07-27 04:00:52.780 ,1,0,0.,12.0,0.,12.0,0.,12.0,0.,12.0
1979-07-27 04:01:04.780 ,1,0,0.,12.0,0.,12.0,0.,12.0,0.,12.0
1979-07-27 04:01:16.780 ,1,0,0.,12.0,0.,12.0,0.,12.0,0.,12.0
1979-07-27 04:01:28.780 ,1,0,0.,12.0,0.,12.0,0.,12.0,0.,12.0
1979-07-27 04:01:40.780 ,2,0,0.,12.0,0.,12.0,0.,12.0,0.,12.0
1979-07-27 04:01:52.780 ,2,0,0.,12.0,0.,12.0,0.,12.0,0.,12.0
1979-07-27 04:02:04.780 ,2,0,0.,12.0,0.,12.0,0.,12.0,0.,12.0
1979-07-27 04:02:16.780 ,2,0,0.,12.0,0.,12.0,0.,12.0,0.,12.0
1979-07-27 04:02:28.780 ,3,0,0.,12.0,0.,12.0,0.,12.0,0.,12.0
1979-07-27 04:02:40.780 ,3,0,0.,12.0,0.,12.0,0.,12.0,0.,12.0
1979-07-27 04:02:52.780 ,3,0,0.,12.0,0.,12.0,0.,12.0,0.,12.0
1979-07-27 04:03:04.780 ,3,0,0.,12.0,0.,12.0,0.,12.0,0.,12.0
1979-07-27 04:03:16.780 ,4,0,0.,12.0,0.,12.0,0.,12.0,0.,12.0
1979-07-27 04:03:28.780 ,4,0,0.,12.0,0.,12.0,0.,12.0,0.,12.0
1979-07-27 04:03:40.780 ,4,0,0.,12.0,0.,12.0,0.,12.0,0.,12.0
1979-07-27 04:03:52.780 ,4,0,0.,12.0,0.,12.0,0.,12.0,0.,12.0
1979-07-27 04:04:04.780 ,5,0,0.,12.0,0.,12.0,0.,12.0,0.,12.0
1979-07-27 04:04:16.780 ,5,0,0.,12.0,0.,12.0,0.,12.0,0.,12.0
1979-07-27 04:04:28.780 ,5,0,0.,12.0,0.,12.0,0.,12.0,0.,12.0
1979-07-27 04:04:40.780 ,5,0,0.,12.0,0.,12.0,0.,12.0,0.,12.0
1979-07-27 04:04:52.780 ,6,0,0.,12.0,0.,12.0,0.,12.0,0.,12.0
1979-07-27 04:05:04.780 ,6,0,0.,12.0,0.,12.0,0.,12.0,0.,12.0
1979-07-27 04:05:16.780 ,6,0,0.,12.0,0.,12.0,0.,12.0,0.,12.0
1979-07-27 04:05:28.780 ,6,0,0.,12.0,0.,12.0,0.,12.0,0.,12.0
1979-07-27 04:05:40.780 ,7,0,0.,12.0,0.,12.0,0.,12.0,0.,12.0
1979-07-27 04:05:52.780 ,7,0,0.,12.0,0.,12.0,0.,12.0,0.,12.0
1979-07-27 04:06:04.780 ,7,0,0.,12.0,0.,12.0,0.,12.0,0.,12.0
1979-07-27 04:06:16.780 ,7,0,0.,12.0,0.,12.0,0.,12.0,0.,12.0
1979-07-27 04:06:28.780 ,7,0,0.,12.0,0.,12.0,0.,12.0,0.,12.0
1979-07-27 04:06:40.780 ,7,0,0.,12.0,0.,12.0,0.,12.0,0.,12.0
1979-07-27 04:06:52.780 ,7,0,0.,12.0,0.,12.0,0.,12.0,0.,12.0
1979-07-27 04:07:04.780 ,7,0,0.,12.0,0.,12.0,0.,12.0,0.,12.0
1979-07-27 04:07:16.780 ,6,0,0.,12.0,0.,12.0,0.,12.0,0.,12.0
1979-07-27 04:07:28.780 ,6,0,0.,12.0,0.,12.0,0.,12.0,0.,12.0
1979-07-27 04:07:40.780 ,6,0,0.,12.0,0.,12.0,0.,12.0,0.,12.0
1979-07-27 04:07:52.780 ,6,0,0.,12.0,0.,12.0,0.,12.0,0.,12.0
1979-07-27 04:08:04.780 ,5,0,0.,12.0,0.,12.0,0.,12.0,0.,12.0
1979-07-27 04:08:16.780 ,5,0,0.,12.0,0.,12.0,0.,12.0,0.,12.0
1979-07-27 04:08:28.780 ,5,0,0.,12.0,0.,12.0,0.,12.0,0.,12.0
1979-07-27 04:08:40.780 ,5,0,0.,12.0,0.,12.0,0.,12.0,0.,12.0
1979-07-27 04:08:52.780 ,4,0,1.,12.0,0.,12.0,0.,12.0,0.,12.0
1979-07-27 04:09:04.780 ,4,0,0.,12.0,0.,12.0,0.,12.0,0.,12.0
1979-07-27 04:09:16.780 ,4,0,0.,12.0,0.,12.0,0.,12.0,0.,12.0
1979-07-27 04:09:28.780 ,4,0,0.,12.0,0.,12.0,0.,12.0,0.,12.0
1979-07-27 04:09:40.780 ,3,0,0.,12.0,0.,12.0,0.,12.0,0.,12.0
1979-07-27 04:09:52.780 ,3,0,0.,12.0,0.,12.0,0.,12.0,0.,12.0
1979-07-27 04:10:04.780 ,3,0,0.,12.0,0.,12.0,0.,12.0,0.,12.0
1979-07-27 04:10:16.780 ,3,0,0.,12.0,0.,12.0,0.,12.0,0.,12.0
1979-07-27 04:10:28.780 ,2,0,0.,12.0,0.,12.0,0.,12.0,0.,12.0
1979-07-27 04:10:40.780 ,2,0,0.,12.0,0.,12.0,0.,12.0,0.,12.0
1979-07-27 04:10:52.780 ,2,0,0.,12.0,0.,12.0,0.,12.0,0.,12.0
1979-07-27 04:11:04.780 ,2,0,0.,12.0,0.,12.0,0.,12.0,0.,12.0
1979-07-27 04:11:16.780 ,1,0,0.,12.0,0.,12.0,0.,12.0,0.,12.0
1979-07-27 04:11:28.780 ,1,0,0.,12.0,0.,12.0,0.,12.0,0.,12.0
1979-07-27 04:11:40.780 ,1,0,0.,12.0,0.,12.0,0.,12.0,0.,12.0
1979-07-27 04:11:52.780 ,1,0,0.,12.0,0.,12.0,0.,12.0,0.,12.0
1979-07-27 04:12:04.780 ,0,0,0.,12.0,0.,12.0,0.,12.0,0.,12.0
1979-07-27 04:12:16.780 ,0,0,0.,12.0,0.,12.0,0.,12.0,0.,12.0
1979-07-27 04:12:28.780 ,0,0,0.,12.0,0.,12.0,0.,12.0,0.,12.0
1979-07-27 04:12:40.780 ,0,0,0.,12.0,0.,12.0,0.,12.0,0.,12.0
1979-07-27 04:12:52.780 ,0,0,0.,12.0,0.,12.0,0.,12.0,0.,12.0
1979-07-27 04:13:04.780 ,0,0,0.,12.0,0.,12.0,0.,12.0,0.,12.0
1979-07-27 04:13:16.780 ,0,0,0.,12.0,0.,12.0,0.,12.0,0.,12.0
1979-07-27 04:13:28.780 ,0,0,0.,12.0,0.,12.0,0.,12.0,0.,12.0
1979-07-27 04:13:40.780 ,1,0,0.,12.0,0.,12.0,0.,12.0,0.,12.0
1979-07-27 04:13:52.780 ,1,0,0.,12.0,0.,12.0,0.,12.0,0.,12.0
1979-07-27 04:14:04.780 ,1,0,0.,12.0,0.,12.0,0.,12.0,0.,12.0
1979-07-27 04:14:16.780 ,1,0,0.,12.0,0.,12.0,0.,12.0,0.,12.0
1979-07-27 04:14:28.780 ,2,0,0.,12.0,0.,12.0,0.,12.0,0.,12.0
1979-07-27 04:14:40.780 ,2,0,0.,12.0,0.,12.0,0.,12.0,0.,12.0
1979-07-27 04:14:52.780 ,2,0,0.,12.0,0.,12.0,0.,12.0,0.,12.0
1979-07-27 04:15:04.780 ,2,0,0.,12.0,0.,12.0,0.,12.0,0.,12.0
1979-07-27 04:15:16.780 ,3,0,0.,12.0,0.,12.0,0.,12.0,0.,12.0
1979-07-27 04:15:28.780 ,3,0,0.,12.0,0.,12.0,0.,12.0,0.,12.0
1979-07-27 04:15:40.780 ,3,0,0.,12.0,0.,12.0,0.,12.0,0.,12.0
1979-07-27 04:15:52.780 ,3,0,0.,12.0,0.,12.0,0.,12.0,0.,12.0
1979-07-27 04:16:04.780 ,4,0,0.,12.0,0.,12.0,0.,12.0,0.,12.0
1979-07-27 04:16:16.780 ,4,0,0.,12.0,0.,12.0,0.,12.0,0.,12.0
1979-07-27 04:16:28.780 ,4,0,0.,12.0,0.,12.0,0.,12.0,0.,12.0
1979-07-27 04:16:40.780 ,4,0,0.,12.0,0.,12.0,0.,12.0,0.,12.0
1979-07-27 04:16:52.780 ,5,0,0.,12.0,0.,12.0,0.,12.0,0.,12.0
1979-07-27 04:17:04.780 ,5,0,0.,12.0,0.,12.0,0.,12.0,0.,12.0
1979-07-27 04:17:16.780 ,5,0,0.,12.0,0.,12.0,0.,12.0,0.,12.0
1979-07-27 04:17:28.780 ,5,0,0.,12.0,0.,12.0,0.,12.0,0.,12.0